EW7452 Krunni FI current weather conditions

sailwx.info

Wind from 188 at 15 knots gusting 18

Air temperature 2.2° C
Dewpoint 1.6° C

Last reported at 2019-Dec-11 20:45 UTC.
Time now 2019-Dec-11 21:55 UTC

Location: N 63°59' E 023°09'.
View on Google Maps.

See reports from other nearby stations

  
Tides and Currents Weather Stations Pressure Air Temp Water Temp Dewpoint Dewpoint Depression Visibility Wind Speed Wind Dir Waves Ship Positions
date/time (UTC)wind fromknots sea level pressurealtimeterstation pressurevisibilityair tempwater tempwave heightnotes
2019-Dec-11 20:45 188 15 gusting 18 2.2
2019-Dec-11 20:15 191 16 gusting 21 2.2
2019-Dec-11 20:00 191 15 gusting 21 2.2
2019-Dec-11 18:30 206 17 gusting 21 2.2
2019-Dec-11 18:15 195 16 gusting 21 2.2
2019-Dec-11 17:45 200 17 gusting 21 2.2
2019-Dec-11 17:30 195 17 gusting 21 1.7
2019-Dec-11 16:31 195 21 gusting 26 1.7
2019-Dec-11 16:15 194 19 gusting 23 1.7
2019-Dec-11 16:00 195 19 gusting 26 1.7
2019-Dec-11 15:45 204 20 gusting 26 1.7
2019-Dec-11 15:15 190 20 gusting 28 1.7
2019-Dec-11 15:00 202 23 gusting 29 1.7
2019-Dec-11 14:15 190 22 gusting 28 1.1
2019-Dec-11 13:45 190 23 gusting 30 1.1
2019-Dec-11 13:15 183 22 gusting 28 1.1
2019-Dec-11 12:45 168 21 gusting 33 1.1
2019-Dec-11 12:30 169 23 gusting 33 1.1
2019-Dec-11 12:17 178 21 gusting 31 1.1
2019-Dec-11 11:45 175 19 gusting 31 1.1
2019-Dec-11 11:30 168 23 gusting 29 1.1
2019-Dec-11 11:15 176 20 gusting 29 0.6
2019-Dec-11 11:01 166 19 gusting 25 0.6
2019-Dec-11 10:46 170 18 gusting 32 0.6
2019-Dec-11 09:15 172 19 gusting 26 -0.0
2019-Dec-11 08:45 167 21 gusting 26 -0.0
2019-Dec-11 08:30 161 18 gusting 31 -0.0
2019-Dec-11 08:15 170 21 gusting 29 -0.0
2019-Dec-11 07:45 172 19 gusting 32 -0.6
2019-Dec-11 07:30 170 21 gusting 29 -0.6
2019-Dec-11 07:16 170 18 gusting 28 -1.1
2019-Dec-11 07:00 169 19 gusting 33 -1.1
2019-Dec-11 06:45 168 20 gusting 28 -1.1
2019-Dec-11 06:30 166 19 gusting 30 -1.1
2019-Dec-11 06:15 163 19 gusting 27 -1.1
2019-Dec-11 05:45 155 19 gusting 27 -1.7
2019-Dec-11 05:15 153 15 gusting 25 -2.2
2019-Dec-11 05:00 164 14 gusting 24 -2.2
2019-Dec-11 04:45 152 16 gusting 24 -2.2
2019-Dec-11 04:15 174 16 gusting 28 -2.2
2019-Dec-11 04:00 162 18 gusting 26 -2.2
2019-Dec-11 03:45 159 16 gusting 25 -2.2
2019-Dec-11 03:00 152 18 gusting 25 -2.8
2019-Dec-11 02:45 149 13 gusting 21 -2.8
2019-Dec-11 02:30 166 13 gusting 19 -2.8
2019-Dec-11 02:18 162 14 gusting 19 -3.3
2019-Dec-11 01:45 160 13 gusting 21 -3.3
2019-Dec-11 01:15 177 15 gusting 21 -3.9
2019-Dec-11 01:00 161 14 gusting 20 -3.9
2019-Dec-11 00:15 163 12 gusting 17 -4.4
2019-Dec-11 00:00 171 12 gusting 19 -4.4
2019-Dec-10 23:15 159 13 gusting 20 -4.4
2019-Dec-10 23:00 172 11 gusting 16 -4.4
2019-Dec-10 22:45 168 9 gusting 16 -4.4
2019-Dec-10 22:30 162 11 gusting 18 -5.0
2019-Dec-10 22:16 161 12 gusting 15 -5.0
2019-Dec-10 22:00 150 10 gusting 17 -5.0
2019-Dec-10 21:45 164 14 gusting 18 -5.0
2019-Dec-10 21:33 176 13 gusting 18 -5.0
2019-Dec-10 21:15 172 11 gusting 17 -5.0
2019-Dec-10 20:45 179 13 gusting 17 -5.0
2019-Dec-10 20:00 191 15 gusting 19 -4.4
2019-Dec-10 19:45 184 14 gusting 19 -4.4
2019-Dec-10 19:00 190 12 gusting 15 -4.4
2019-Dec-10 18:30 197 13 gusting 15 -3.3
2019-Dec-10 18:00 183 10 gusting 12 -3.9
2019-Dec-10 17:31 182 9 gusting 13 -3.3
2019-Dec-10 17:00 197 9 gusting 13 -3.3
2019-Dec-10 16:30 199 10 gusting 12 -2.8
2019-Dec-10 16:15 199 9 gusting 12 -2.2
2019-Dec-10 14:30 237 7 gusting 10 -1.7
2019-Dec-10 13:30 252 5 gusting 10 -1.7
2019-Dec-10 13:00 264 5 gusting 10 -1.1
2019-Dec-10 12:15 258 4 gusting 6 -2.2
2019-Dec-10 11:45 295 1 gusting 3 -1.7
2019-Dec-10 11:31 272 0 gusting 5 -1.7
2019-Dec-10 11:15 316 -1.1
2019-Dec-10 11:00 004 2 gusting 8 -1.1
2019-Dec-10 10:45 332 1 gusting 9 -1.1
2019-Dec-10 10:31 019 4 gusting 10 -1.1
2019-Dec-10 09:30 310 6 gusting 11 -1.1
2019-Dec-10 09:15 333 6 gusting 12 -1.1
2019-Dec-10 09:00 031 6 gusting 13 -1.7
2019-Dec-10 08:45 332 6 gusting 11 -1.7
2019-Dec-10 08:15 299 3 gusting 11 -1.7
2019-Dec-10 07:30 280 4 gusting 11 -1.7
2019-Dec-10 06:45 337 4 gusting 9 -2.2
2019-Dec-10 06:30 293 4 gusting 10 -1.7
2019-Dec-10 06:15 021 2 gusting 9 -1.7
2019-Dec-10 06:00 316 3 gusting 9 -1.7
2019-Dec-10 05:45 293 4 gusting 8 -1.7
2019-Dec-10 05:31 332 4 gusting 10 -1.7
2019-Dec-10 05:00 359 5 gusting 11 -1.7
2019-Dec-10 04:45 316 3 gusting 12 -1.7
2019-Dec-10 04:30 354 4 gusting 9 -1.7
2019-Dec-10 04:00 345 5 gusting 13 -1.7
2019-Dec-10 03:30 350 2 gusting 10 -1.7
2019-Dec-10 03:15 305 4 gusting 11 -1.7
2019-Dec-10 03:00 354 3 gusting 13 -1.7
2019-Dec-10 02:46 324 4 gusting 16 -1.7
2019-Dec-10 02:15 354 5 gusting 14 -1.7
2019-Dec-10 02:00 337 6 gusting 13 -1.7
2019-Dec-10 01:30 326 6 gusting 13 -1.7
2019-Dec-10 01:00 317 6 gusting 14 -1.7
2019-Dec-10 00:30 347 6 gusting 13 -1.7
2019-Dec-09 23:00 305 4 gusting 8 -1.7
2019-Dec-09 22:30 295 4 gusting 13 -2.2
2019-Dec-09 21:45 321 5 gusting 12 -2.2
2019-Dec-09 21:30 277 3 gusting 8 -2.2
2019-Dec-09 21:15 302 1 gusting 11 -2.2